Location: Montebello
(37.3256°N, 122.1789°W)
Time: 14:38:47
(UTC-07:00)

ISS - Visible Passes

Search period start: 17 July 2018 00:00
Search period end: 27 July 2018 00:00
Orbit: 402 x 408 km, 51.6° (Epoch: 18 July)

Date Brightness Start Highest point End Pass type
(mag) Time Alt. Az. Time Alt. Az. Time Alt. Az.
17 Jul -1.4 05:11:01 10° NNW 05:13:53 26° NNE 05:16:44 10° E visible
18 Jul -0.7 04:19:19 10° NNW 04:21:36 17° NNE 04:23:53 10° ENE visible
18 Jul -1.7 20:59:59 10° SE 21:00:36 10° SE 21:01:13 10° ESE visible
18 Jul -3.5 22:33:25 10° WSW 22:36:39 66° NW 22:39:55 10° NE visible
19 Jul -0.4 00:12:09 10° NW 00:13:40 13° NNW 00:15:12 10° N visible
19 Jul -0.3 03:27:49 10° N 03:29:14 12° NNE 03:30:38 10° NE visible
19 Jul -3.2 05:03:00 10° NW 05:06:17 60° NE 05:09:32 10° ESE visible
19 Jul -3.9 21:41:22 10° SW 21:44:34 58° SE 21:47:48 10° ENE visible
19 Jul -0.9 23:18:57 10° WNW 23:21:18 18° NNW 23:23:39 10° NNE visible
20 Jul -1.9 04:11:05 10° NNW 04:14:05 32° NNE 04:17:05 10° E visible
20 Jul -1.6 22:26:06 10° W 22:29:00 28° NNW 22:31:53 10° NNE visible
21 Jul -1.0 03:19:17 10° NNW 03:21:48 20° NNE 03:24:19 10° ENE visible
21 Jul -3.7 04:55:16 10° WNW 04:58:28 48° SW 05:01:38 10° SSE visible
21 Jul -2.9 21:33:34 10° WSW 21:36:45 51° NW 21:39:58 10° NE visible
21 Jul -0.3 23:12:48 10° NW 23:13:52 11° NNW 23:14:57 10° N visible
22 Jul -0.5 02:27:39 10° N 02:29:25 14° NNE 02:31:11 10° NE visible
22 Jul -3.8 04:03:05 10° NW 04:06:22 78° NE 04:09:39 10° SE visible
22 Jul -0.6 22:19:21 10° WNW 22:21:26 16° NNW 22:23:31 10° NNE visible
23 Jul -1.2 21:26:22 10° W 21:29:04 23° NNW 21:31:48 10° NNE visible
24 Jul -0.2 22:13:45 10° NNW 22:13:59 10° NNW 22:14:12 10° NNW visible
25 Jul -0.7 21:19:42 10° NW 21:21:28 14° NNW 21:23:15 10° N visible
